When you browse on this site, cookies collect data to enhance your experience and personalize the content and advertising you see.
Visit our Privacy Policy to learn more. By continuing to use the site, you agree to this use of cookies and data.
  • In Switzerland
  • List of Countries
  • For 7 days
  • Water Temperature
  • Satellite Maps
  • Weather Map
  • Weather Widgets
  • user-avatar
    Login

    Hourly Weather Playuts'

    Today, 20 April, Saturday

    Time Temperature Precipitation Wind Pressure Humidity
    00:00 +8°C° 0 mm 1 mps 735 mmHg 85%
    01:00 +8°C° 0 mm 1 mps 735 mmHg 85%
    02:00 +7°C° 0 mm 1 mps 735 mmHg 85%
    03:00 +7°C° 0 mm 1 mps 735 mmHg 84%
    04:00 +7°C° 0 mm 1 mps 735 mmHg 83%
    05:00 +6°C° 0 mm 0 mps 735 mmHg 81%
    06:00 +6°C° 0 mm 0 mps 735 mmHg 80%
    07:00 +7°C° 0 mm 1 mps 735 mmHg 81%
    08:00 +8°C° 0 mm 0 mps 735 mmHg 86%
    09:00 +10°C° 0 mm 1 mps 736 mmHg 80%
    10:00 +12°C° 0 mm 2 mps 736 mmHg 75%
    11:00 +13°C° 0 mm 2 mps 736 mmHg 73%
    12:00 +13°C° 0 mm 2 mps 736 mmHg 74%
    13:00 +12°C° 0 mm 3 mps 735 mmHg 76%
    14:00 +11°C° 0.3 mm 3 mps 735 mmHg 85%
    15:00 +11°C° 0.7 mm 3 mps 735 mmHg 88%
    16:00 +12°C° 0.2 mm 2 mps 734 mmHg 81%
    17:00 +12°C° 0 mm 3 mps 734 mmHg 75%
    18:00 +12°C° 0 mm 2 mps 734 mmHg 81%
    19:00 +12°C° 0 mm 2 mps 734 mmHg 87%
    20:00 +10°C° 0 mm 2 mps 733 mmHg 91%
    21:00 +9°C° 0 mm 2 mps 733 mmHg 90%
    22:00 +10°C° 0 mm 1 mps 733 mmHg 88%
    23:00 +10°C° 0 mm 1 mps 732 mmHg 87%

    Tomorrow, 21 April, Sunday

    Time Temperature Precipitation Wind Pressure Humidity
    00:00 +9°C° 0 mm 0 mps 732 mmHg 87%
    01:00 +10°C° 0 mm 1 mps 732 mmHg 89%
    02:00 +9°C° 0.1 mm 1 mps 732 mmHg 98%
    03:00 +8°C° 0 mm 0 mps 731 mmHg 100%
    04:00 +8°C° 0.1 mm 0 mps 731 mmHg 100%
    05:00 +7°C° 3.8 mm 2 mps 731 mmHg 100%
    06:00 +8°C° 0.9 mm 1 mps 730 mmHg 100%
    07:00 +8°C° 0 mm 0 mps 731 mmHg 100%
    08:00 +10°C° 0 mm 1 mps 730 mmHg 98%
    09:00 +11°C° 0 mm 1 mps 730 mmHg 99%
    10:00 +12°C° 0 mm 2 mps 731 mmHg 98%
    11:00 +13°C° 0 mm 2 mps 730 mmHg 91%
    12:00 +13°C° 0.5 mm 2 mps 730 mmHg 90%
    13:00 +11°C° 1.2 mm 4 mps 730 mmHg 98%
    14:00 +12°C° 1.9 mm 1 mps 729 mmHg 97%
    15:00 +12°C° 0 mm 0 mps 729 mmHg 92%
    16:00 +12°C° 0.5 mm 4 mps 728 mmHg 93%
    17:00 +11°C° 0.9 mm 1 mps 728 mmHg 93%
    18:00 +12°C° 0 mm 2 mps 728 mmHg 91%
    19:00 +12°C° 0 mm 2 mps 728 mmHg 94%
    20:00 +11°C° 0 mm 1 mps 728 mmHg 100%
    21:00 +11°C° 0 mm 1 mps 728 mmHg 100%
    22:00 +10°C° 0 mm 1 mps 728 mmHg 100%
    23:00 +9°C° 0 mm 1 mps 728 mmHg 100%

    Day after tomorrow, 22 April, Monday

    Time Temperature Precipitation Wind Pressure Humidity
    00:00 +9°C° 0 mm 1 mps 727 mmHg 100%
    01:00 +9°C° 0 mm 1 mps 727 mmHg 99%
    02:00 +7°C° 0 mm 0 mps 727 mmHg 100%
    03:00 +7°C° 0 mm 2 mps 727 mmHg 96%
    04:00 +8°C° 0 mm 1 mps 727 mmHg 93%
    05:00 +7°C° 0 mm 2 mps 727 mmHg 93%
    06:00 +7°C° 0 mm 2 mps 727 mmHg 94%
    07:00 +8°C° 0 mm 2 mps 727 mmHg 93%
    08:00 +10°C° 0 mm 3 mps 728 mmHg 89%
    09:00 +11°C° 0 mm 3 mps 728 mmHg 89%
    10:00 +12°C° 0 mm 4 mps 728 mmHg 93%
    11:00 +13°C° 0 mm 3 mps 728 mmHg 89%
    12:00 +14°C° 0 mm 4 mps 728 mmHg 86%
    13:00 +14°C° 0 mm 5 mps 728 mmHg 85%
    14:00 +14°C° 0 mm 6 mps 728 mmHg 85%
    15:00 +14°C° 0 mm 5 mps 728 mmHg 82%
    16:00 +14°C° 0 mm 6 mps 728 mmHg 79%
    17:00 +12°C° 0 mm 7 mps 728 mmHg 79%
    18:00 +11°C° 0 mm 6 mps 728 mmHg 82%
    19:00 +10°C° 0 mm 6 mps 729 mmHg 87%
    20:00 +9°C° 0 mm 5 mps 729 mmHg 90%
    21:00 +9°C° 0 mm 5 mps 729 mmHg 88%
    22:00 +8°C° 0 mm 5 mps 729 mmHg 87%
    23:00 +8°C° 0 mm 5 mps 730 mmHg 87%

    23 April, Tuesday

    Time Temperature Precipitation Wind Pressure Humidity
    00:00 +8°C° 0 mm 5 mps 730 mmHg 87%
    01:00 +8°C° 0 mm 5 mps 730 mmHg 88%
    02:00 +7°C° 0 mm 5 mps 730 mmHg 88%
    03:00 +7°C° 0 mm 5 mps 730 mmHg 87%
    04:00 +6°C° 0 mm 4 mps 730 mmHg 85%
    05:00 +6°C° 0 mm 4 mps 730 mmHg 84%
    06:00 +6°C° 0 mm 4 mps 729 mmHg 83%
    07:00 +7°C° 0 mm 5 mps 730 mmHg 80%
    08:00 +8°C° 0 mm 6 mps 730 mmHg 77%
    09:00 +10°C° 0 mm 6 mps 730 mmHg 76%
    10:00 +11°C° 0 mm 7 mps 730 mmHg 75%
    11:00 +12°C° 0 mm 8 mps 730 mmHg 75%
    12:00 +12°C° 0 mm 8 mps 731 mmHg 76%
    13:00 +12°C° 0 mm 7 mps 731 mmHg 77%
    14:00 +12°C° 0 mm 8 mps 731 mmHg 80%

    24 April, Wednesday

    Time Temperature Precipitation Wind Pressure Humidity

    25 April, Thursday

    Time Temperature Precipitation Wind Pressure Humidity
    Show more